Meteo Giornale » Osservazioni meteo Francia » Villacoublay

ore: 02:30 - Osservazioni Meteo Villacoublay
Lat. 48° 46' N Lon. 2° 12' E Alt. 177 metri s.l.m.

coperto Europe/Paris

13 °C

Coperto

Temp. 24 Ore

12 °C

16 °C

Nord

5.5 Km/h

Dew point 11 °C

Umidità 87 %

Visibilità  10 Km

Il sole sorge alle ore 05:46

Il sole tramonta alle ore 22:00

Data e Ora Cielo e Fenomeni T °C DP °C Um. % Pres. hPa Vis. km Vento km/h
Oggi h: 02:30 coperto Coperto 13 11 87 1022 10 N 5.5
Oggi h: 02:00 coperto Coperto 13 11 87 1022 10 N 5.5
Oggi h: 01:30 molto_nuvoloso Molto Nuvoloso 13 11 87 1021 10 N 7.4
Oggi h: 01:00 molto_nuvoloso Molto Nuvoloso 13 11 87 1021 10 N 13
Oggi h: 00:30 molto_nuvoloso Molto Nuvoloso 13 11 87 1022 10 N 9.3
Oggi h: 00:00 coperto Coperto 14 10 76 1022 10 N 9.3
Ieri h: 23:00 coperto Coperto 14 10 76 1022 10 N/NE 9.3
Ieri h: 22:30 coperto Coperto 14 10 76 1022 10 N 11.1
Ieri h: 22:00 coperto Coperto 14 10 76 1021 10 N 9.3
Ieri h: 21:30 coperto Coperto 14 10 76 1021 10 N 13
Ieri h: 21:00 coperto Coperto 15 11 76 1021 10 N/NE 14.8
Ieri h: 20:30 molto_nuvoloso Molto Nuvoloso 15 11 76 1021 10 N/NE 13
Ieri h: 20:00 coperto Coperto 15 12 82 1020 10 N 13
Ieri h: 19:30 coperto Coperto 15 12 82 1020 10 N 16.7
Ieri h: 19:00 coperto Coperto 15 12 82 1021 10 N/NE 14.8
Ieri h: 18:30 coperto Coperto 16 12 77 1020 10 N 16.7
Ieri h: 18:00 coperto Coperto 15 12 82 1021 10 N 14.8
Ieri h: 17:30 coperto Coperto 15 12 82 1021 10 N 14.8
Ieri h: 17:00 coperto Coperto 15 12 82 1021 10 N 16.7
Ieri h: 16:30 coperto Coperto 15 12 82 1021 10 N 14.8
Ieri h: 15:30 coperto Coperto 15 12 82 1021 10 N 14.8
Ieri h: 15:00 coperto Coperto 15 12 82 1021 10 N 11.1
Ieri h: 14:30 coperto Coperto 14 12 87 1021 10 N/NE 11.1
Ieri h: 14:00 coperto Coperto 14 12 87 1021 10 N/NE 11.1
Ieri h: 13:30 coperto Coperto 14 12 87 1021 10 N 9.3
Ieri h: 13:00 coperto Coperto 14 12 87 1021 10 N 9.3
Ieri h: 12:30 coperto Coperto 14 12 87 1021 10 N/NO 11.1
Ieri h: 12:00 coperto Coperto 14 12 87 1020 10 N 13
Ieri h: 11:30 coperto Coperto 13 11 87 1020 9 N 13
Ieri h: 11:00 coperto Coperto 13 12 93 1020 8 N 14.8
Ieri h: 10:30 coperto Coperto 13 11 87 1020 7 N/NE 13
Ieri h: 10:00 coperto Coperto 13 11 87 1020 7 N 13
Ieri h: 09:30 foschia Foschia 12 11 93 1020 5 N/NE 14.8
Ieri h: 09:00 foschia Foschia 12 12 100 1020 5 N 14.8
Ieri h: 08:30 coperto Coperto 12 11 93 1020 6 N/NE 14.8
Ieri h: 08:00 coperto Coperto 12 12 100 1019 6 N/NE 14.8
Ieri h: 07:30 coperto Coperto 12 11 93 1019 7 N 11.1
Ieri h: 07:00 foschia Foschia 12 12 100 1019 5 N/NE 13
Ieri h: 06:30 coperto Coperto 12 11 93 1019 6 N 11.1
Ieri h: 06:00 coperto Coperto 12 11 93 1019 7 N 13
Ieri h: 05:30 coperto Coperto 12 11 93 1019 6 N 11.1
Ieri h: 05:00 coperto Coperto 12 11 93 1019 6 N 9.3
Ieri h: 04:30 coperto Coperto 12 11 93 1019 6 N 13
Ieri h: 04:00 coperto Coperto 12 11 93 1019 6 N/NE 13
Ieri h: 03:30 coperto Coperto 13 11 87 1019 6 N/NE 13
Ieri h: 03:00 coperto Coperto 13 12 93 1019 7 N 9.3